Kodiak, AK

1:54 PM AKDT on June 25, 2017 (GMT -0800)
Kodiak

Weather History for PADQ - October, 2010

Change the Weather History Date:

Monday, October 25, 2010

  Actual Average Record
Temperature  
Mean Temperature 39 °F 38 °F  
Max Temperature 47 °F 44 °F 53 °F (1978)
Min Temperature 31 °F 32 °F 14 °F (1985)
Degree Days  
Heating Degree Days 26 27  
Month to date heating degree days 562 594  
Since 1 July heating degree days 1634 1695  
Cooling Degree Days 0 0  
Month to date cooling degree days 0 0  
Year to date cooling degree days 0 1  
Moisture  
Dew Point 31 °F    
Average Humidity 0    
Maximum Humidity 0    
Minimum Humidity 0    
Precipitation  
Precipitation 0.00 in 0.25 in 1.46 in (2007)
Month to date precipitation 5.58 6.75  
Year to date precipitation 60.70 60.89  
Snow  
Snow 0.00 in 0.10 in 2.70 in (1994)
Month to date snowfall 0.0 0.7  
Since 1 July snowfall 0.0 0.7  
Since 1 September snowfall 0.0 0.7  
Snow Depth 0.00 in    
Sea Level Pressure  
Sea Level Pressure 29.39 in    
Wind  
Wind Speed 5 mph (WSW)    
Max Wind Speed 10 mph    
Max Gust Speed 15 mph    
Visibility 10 miles    
Events      
T = Trace of Precipitation, MM = Missing Value Source: NWS Daily Summary

Daily Weather History Graph

Daily Weather History Graph

Search for Another Location

Airport or City:

Trip Planner

Search our weather history database for the weather conditions in past years. The results will help you decide how hot, cold, wet, or windy it might be!

Date:

Astronomy

Oct. 25, 2010 Rise Set
Actual Time 9:07 AM AKDT 6:39 PM AKDT
Civil Twilight 8:26 AM AKDT 7:20 PM AKDT
Nautical Twilight 7:41 AM AKDT 8:05 PM AKDT
Astronomical Twilight 6:56 AM AKDT 8:50 PM AKDT
Moon 7:19 PM AKDT 12:56 PM AKDT
Length of Visible Light 10h 53m
Length of Day
9h 31m
Waning Gibbous, 92% of the Moon is Illuminated
Oct 25
Waning Gibbous
Oct 30
Last Quarter
Nov 5
New
Nov 13
First Quarter
Nov 21
Full

Hourly Weather History & Observations

Time (AKDT) Temp. Windchill Dew Point Humidity Pressure Visibility Wind Dir Wind Speed Gust Speed Precip Events Conditions
12:14 AM 39.2 °F 33.6 °F 35.6 °F 87% 29.26 in 10.0 mi NNW 8.1 mph - N/A   Mostly Cloudy
1:53 AM 37.9 °F 34.4 °F 35.1 °F 89% 29.28 in 10.0 mi West 4.6 mph - N/A   Mostly Cloudy
2:53 AM 34.0 °F 31.0 °F 32.0 °F 92% 29.28 in 10.0 mi WNW 3.5 mph - N/A   Scattered Clouds
3:53 AM 33.8 °F 28.6 °F 32.0 °F 93% 29.29 in 10.0 mi West 5.8 mph - N/A   Scattered Clouds
4:53 AM 33.1 °F 30.0 °F 32.0 °F 96% 29.30 in 10.0 mi West 3.5 mph - N/A   Scattered Clouds
5:53 AM 32.0 °F - 30.0 °F 92% 29.31 in 10.0 mi Calm Calm - N/A   Partly Cloudy
6:53 AM 32.0 °F 28.7 °F 30.9 °F 96% 29.33 in 10.0 mi West 3.5 mph - N/A   Partly Cloudy
7:53 AM 30.9 °F 26.2 °F 30.0 °F 96% 29.34 in 10.0 mi West 4.6 mph - N/A   Partly Cloudy
8:53 AM 30.9 °F 24.3 °F 28.9 °F 92% 29.35 in 10.0 mi West 6.9 mph - N/A   Scattered Clouds
9:53 AM 32.0 °F 28.7 °F 30.0 °F 92% 29.37 in 10.0 mi West 3.5 mph - N/A   Scattered Clouds
10:53 AM 34.0 °F 29.8 °F 32.0 °F 92% 29.39 in 10.0 mi West 4.6 mph - N/A   Scattered Clouds
11:53 AM 39.9 °F - 34.0 °F 79% 29.40 in 10.0 mi Calm Calm - N/A   Scattered Clouds
12:53 PM 44.1 °F 42.5 °F 32.0 °F 63% 29.42 in 10.0 mi South 3.5 mph - N/A   Scattered Clouds
1:53 PM 46.0 °F 42.5 °F 32.0 °F 58% 29.44 in 10.0 mi SW 6.9 mph - N/A   Scattered Clouds
2:53 PM 46.9 °F - 30.0 °F 52% 29.44 in 10.0 mi SW 8.1 mph - N/A   Scattered Clouds
3:53 PM 46.0 °F 41.4 °F 30.0 °F 54% 29.45 in 10.0 mi South 9.2 mph - N/A   Scattered Clouds
4:53 PM 46.0 °F 43.9 °F 30.0 °F 54% 29.45 in 10.0 mi South 4.6 mph - N/A   Scattered Clouds
5:53 PM 42.1 °F 39.2 °F 28.9 °F 60% 29.46 in 10.0 mi WSW 4.6 mph - N/A   Scattered Clouds
6:53 PM 37.0 °F 31.6 °F 30.0 °F 76% 29.46 in 10.0 mi West 6.9 mph - N/A   Mostly Cloudy
7:53 PM 35.1 °F 32.2 °F 30.9 °F 85% 29.47 in 10.0 mi West 3.5 mph - N/A   Mostly Cloudy
8:53 PM 33.1 °F 30.0 °F 30.0 °F 89% 29.48 in 10.0 mi WSW 3.5 mph - N/A   Mostly Cloudy
9:53 PM 33.1 °F 28.7 °F 30.0 °F 89% 29.49 in 10.0 mi West 4.6 mph - N/A   Mostly Cloudy
10:53 PM 32.0 °F 26.4 °F 28.9 °F 88% 29.49 in 10.0 mi WNW 5.8 mph - N/A   Mostly Cloudy
11:53 PM 30.9 °F - 28.9 °F 92% 29.51 in 10.0 mi Calm Calm - N/A   Mostly Cloudy